{"data":{"norad_id":66257,"intl_designator":"2025-245Z","name":"STARLINK-35615","alt_names":[],"object_type":"PAYLOAD","status":"ACTIVE","operator":null,"country":"US","launch_date":"2025-10-29","launch_site_code":"AFETR","launch_vehicle":null,"mission":null,"orbit_class":"UNKNOWN","rcs_meters":null,"size_class":null,"mass_kg":null,"dimensions":null,"purposes":["comms"],"wikipedia_slug":null,"has_3d_model":false,"image_url":null,"decayed_at":null,"tle_current":{"epoch":"2026-05-25T03:05:55.655232Z","epoch_age_seconds":57894,"freshness":"FRESH","line1":"1 66257U 25245Z   26145.12911638  .00021898  00000+0  74915-3 0  9999","line2":"2 66257  53.1604 288.5550 0001180  98.9519 261.1616 15.30205571 32963","mean_motion":15.30205571,"eccentricity":0.000118,"inclination_deg":53.1604,"raan_deg":288.555,"arg_perigee_deg":98.9519,"mean_anomaly_deg":261.1616,"bstar":0.00074915,"rev_number":3296,"period_min":94.105003098306,"perigee_km":474.38974188658,"apogee_km":476.00712904935,"semimajor_km":6853.335435468,"source":"CELESTRAK","updated_at":"2026-05-25T13:38:21.138476Z"}}}